DECAYED

THORAD AGENA D DEB, 5957 (Decayed)

Orbit data source: Space-Track

THORAD AGENA D DEB, 5957 was space debris in SSO originally from a launch on Wed, 08 Apr 1970 UTC launched from the Air Force Western Test Range (AFWTR). Debris objects in space refer to the collection of defunct objects orbiting the Earth. Examples of debris include non-operational satellites, rocket bodies, and fragments generated from explosions, collisions, or faulty payload assembly.

Not visible in the next 10 days
Identifier
5957, 1970-025MN
Orbit
Decayed
Country
Flag of USUS
Related business
Manufacturer
Unknown
Mission
Decayed spacecraft
Bus & Motor
Unknown
Mass
Unknown
Launch date (UTC)
1970-04-08 (56 years ago)
Launch vehicle
Unknown
Launch site
Air Force Western Test Range (AFWTR)
Object type
Payload
Rocket body
Debris
Shape & HBR
Unknown shape, 0.1 m
Radar Cross Section
Medium (>0.1 m² and <1 m²)

Expand to show TLE details & history
Last TLE update: 7 months ago

TLE from 7 months ago
0 THORAD AGENA D DEB
1 05957U 70025MN  25323.07345324  .06927204  87162-1  26688-1 0  9999
2 05957  99.5846  81.1784 0021283 324.5387  35.4464 15.92937161142632
Epoch: 2025-11-19T01:45Z
TLE epoch observation values (Epoch: 2025-11-19T01:45:46.359Z)
Latitude
-0.00005°
Longitude
-3.61517°
Altitude
285.623 km
Speed
7.743 km/s
True Right ascension
05h 24m 42s
True Declination
0° 00' 00"
Sunlit
Object was in full shadow at epoch
Visualization orbit readout
Latitude
Unknown
Longitude
Unknown
Altitude
Unknown
Speed
Unknown
Apparent Right ascension
Unknown
Apparent Declination
Unknown
Sunlit
N/A
Visualization observer readout
Local Sidereal Time
03:45:27
Azimuth
Unknown
Elevation
Unknown
Doppler factor
Unknown
Orbital elements
Apogee altitude
305.242 km
Perigee altitude
276.854 km
Semi-major axis
6,669.185 km
Eccentricity
0.00213
Inclination
99.5846°
RAAN
81.1784°
Arg. of periapsis
324.5387°
True anomaly
35.58815°
Mean anomaly
35.4464°
Eccentric anomaly
35.51724°
Mean motion
3.98505 °/min
Orbital period
90.34 mins
BSTAR
0.026688
Loading maneuver chart data...
Computing Atmospheric mass density...

Documentation

Showing up to 5 results
|